Houston, TX

9:50 PM CST on February 10, 2016 (GMT -0600)
Houston / Dunn Helistop

Weather History for KMCJ - September, 2013

Change the Weather History Date:

Wednesday, September 18, 2013

  Actual Average (KHOU) Record (KHOU)
Temperature  
Mean Temperature 84 °F 79 °F  
Max Temperature 91 °F 89 °F 99 °F (1927)
Min Temperature 77 °F 69 °F 54 °F (2000)
Degree Days  
Heating Degree Days 0 0  
Month to date heating degree days 0  
Since 1 July heating degree days 0  
Cooling Degree Days 19 14  
Month to date cooling degree days 294  
Year to date cooling degree days 2676  
Growing Degree Days 34 (Base 50)    
Moisture  
Dew Point 73 °F    
Average Humidity 72    
Maximum Humidity 94    
Minimum Humidity 46    
Precipitation  
Precipitation 0.00 in 0.13 in 2.53 in (1908)
Month to date precipitation 2.59  
Year to date precipitation 34.46  
Sea Level Pressure  
Sea Level Pressure 29.93 in    
Wind  
Wind Speed 8 mph (East)    
Max Wind Speed 21 mph    
Max Gust Speed 24 mph    
Visibility 9 miles    
Events      
T = Trace of Precipitation, MM = Missing Value Source: NWS Daily Summary

Daily Weather History Graph

Daily Weather History Graph

Search for Another Location

Airport or City:

Trip Planner

Search our weather history database for the weather conditions in past years. The results will help you decide how hot, cold, wet, or windy it might be!

Date:

Astronomy

Sep. 18, 2013 Rise Set
Actual Time 7:07 AM CDT 7:22 PM CDT
Civil Twilight 6:44 AM CDT 7:46 PM CDT
Nautical Twilight 6:16 AM CDT 8:14 PM CDT
Astronomical Twilight 5:48 AM CDT 8:42 PM CDT
Moon 6:47 PM CDT (9/18) 6:12 AM CDT (9/18)
Length of Visible Light 13h 02m
Length of Day
12h 14m
Waxing Gibbous, 99% of the Moon is Illuminated
Sep 18
Waxing Gibbous
Sep 19
Full
Sep 26
Last Quarter
Oct 4
New
Oct 11
First Quarter

Hourly Weather History & Observations

Time (CDT) Temp. Heat Index Dew Point Humidity Pressure Visibility Wind Dir Wind Speed Gust Speed Precip Events Conditions
12:15 AM 80.6 °F 86.2 °F 75.2 °F 84% 29.97 in 10.0 mi SE 4.6 mph - N/A   Clear
12:35 AM 80.6 °F 86.2 °F 75.2 °F 84% 29.97 in 9.0 mi SE 5.8 mph - N/A   Clear
12:55 AM 80.6 °F 86.2 °F 75.2 °F 84% 29.97 in 9.0 mi SE 3.5 mph - N/A   Clear
1:15 AM 80.6 °F 86.2 °F 75.2 °F 84% 29.97 in 10.0 mi SE 3.5 mph - N/A   Clear
1:35 AM 80.6 °F 86.2 °F 75.2 °F 84% 29.96 in 10.0 mi ESE 3.5 mph - N/A   Clear
1:55 AM 78.8 °F - 75.2 °F 89% 29.96 in 10.0 mi ESE 4.6 mph - N/A   Clear
2:15 AM 78.8 °F - 75.2 °F 89% 29.95 in 10.0 mi ESE 3.5 mph - N/A   Clear
2:35 AM 78.8 °F - 75.2 °F 89% 29.95 in 10.0 mi East 3.5 mph - N/A   Clear
2:55 AM 78.8 °F - 75.2 °F 89% 29.95 in 10.0 mi ESE 3.5 mph - N/A   Clear
3:15 AM 80.6 °F 86.2 °F 75.2 °F 84% 29.94 in 10.0 mi ESE 3.5 mph - N/A   Clear
3:35 AM 78.8 °F - 73.4 °F 83% 29.94 in 10.0 mi ESE 4.6 mph - N/A   Clear
3:55 AM 78.8 °F - 75.2 °F 89% 29.94 in 9.0 mi East 5.8 mph - N/A   Clear
4:15 AM 78.8 °F - 73.4 °F 83% 29.93 in 9.0 mi ENE 5.8 mph - N/A   Clear
4:35 AM 78.8 °F - 75.2 °F 89% 29.93 in 8.0 mi ENE 5.8 mph - N/A   Clear
4:55 AM 78.8 °F - 75.2 °F 89% 29.93 in 7.0 mi NE 6.9 mph - N/A   Clear
5:15 AM 78.8 °F - 75.2 °F 89% 29.93 in 8.0 mi ENE 6.9 mph - N/A   Clear
5:35 AM 77.0 °F - 75.2 °F 94% 29.93 in 9.0 mi NE 5.8 mph - N/A   Clear
5:55 AM 77.0 °F - 73.4 °F 89% 29.93 in 8.0 mi NE 3.5 mph - N/A   Clear
6:15 AM 77.0 °F - 73.4 °F 89% 29.93 in 8.0 mi NNE 4.6 mph - N/A   Clear
6:35 AM 77.0 °F - 73.4 °F 89% 29.94 in 6.0 mi NE 5.8 mph - N/A   Clear
7:15 AM 77.0 °F - 73.4 °F 89% 29.94 in 5.0 mi ENE 8.1 mph - N/A   Clear
7:35 AM 77.0 °F - 73.4 °F 89% 29.95 in 5.0 mi NE 6.9 mph - N/A   Clear
7:55 AM 77.0 °F - 73.4 °F 89% 29.96 in 5.0 mi ENE 6.9 mph - N/A   Clear
8:15 AM 78.8 °F - 73.4 °F 83% 29.96 in 5.0 mi NE 5.8 mph - N/A   Clear
8:35 AM 80.6 °F 85.4 °F 73.4 °F 79% 29.96 in 6.0 mi ENE 11.5 mph - N/A   Clear
8:55 AM 80.6 °F 85.4 °F 73.4 °F 79% 29.96 in 8.0 mi ENE 11.5 mph - N/A   Clear
9:15 AM 82.4 °F 88.2 °F 73.4 °F 74% 29.96 in 8.0 mi ENE 13.8 mph - N/A   Clear
9:35 AM 84.2 °F 92.3 °F 75.2 °F 74% 29.97 in 8.0 mi ENE 11.5 mph - N/A   Clear
9:55 AM 84.2 °F 92.3 °F 75.2 °F 74% 29.97 in 7.0 mi East 8.1 mph - N/A   Scattered Clouds
10:15 AM 84.2 °F 90.9 °F 73.4 °F 70% 29.98 in 9.0 mi East 13.8 mph - N/A   Mostly Cloudy
10:35 AM 86.0 °F 93.4 °F 73.4 °F 66% 29.98 in 9.0 mi East 13.8 mph - N/A   Mostly Cloudy
10:55 AM 87.8 °F 95.6 °F 73.4 °F 62% 29.98 in 9.0 mi ESE 10.4 mph - N/A   Scattered Clouds
11:15 AM 87.8 °F 95.6 °F 73.4 °F 62% 29.98 in 9.0 mi East 12.7 mph - N/A   Partly Cloudy
11:35 AM 87.8 °F 93.8 °F 71.6 °F 58% 29.97 in 10.0 mi ESE 10.4 mph - N/A   Scattered Clouds
11:55 AM 89.6 °F 96.2 °F 71.6 °F 55% 29.97 in 8.0 mi ESE 11.5 mph 16.1 mph N/A   Partly Cloudy
12:15 PM 91.4 °F 98.4 °F 71.6 °F 52% 29.96 in 9.0 mi East 13.8 mph 20.7 mph N/A   Clear
12:35 PM 89.6 °F 96.2 °F 71.6 °F 55% 29.96 in 9.0 mi East 9.2 mph 17.3 mph N/A   Partly Cloudy
12:55 PM 89.6 °F 96.2 °F 71.6 °F 55% 29.95 in 7.0 mi ESE 11.5 mph - N/A   Partly Cloudy
1:15 PM 91.4 °F 98.4 °F 71.6 °F 52% 29.94 in 9.0 mi East 11.5 mph - N/A   Partly Cloudy
1:35 PM 89.6 °F 96.2 °F 71.6 °F 55% 29.93 in 9.0 mi ESE 8.1 mph - N/A   Partly Cloudy
1:55 PM 89.6 °F 96.2 °F 71.6 °F 55% 29.93 in 9.0 mi ESE 10.4 mph 17.3 mph N/A   Mostly Cloudy
2:15 PM 91.4 °F 100.1 °F 73.4 °F 55% 29.92 in 9.0 mi East 17.3 mph 20.7 mph N/A   Mostly Cloudy
2:35 PM 89.6 °F 98.2 °F 73.4 °F 59% 29.91 in 8.0 mi ESE 11.5 mph 23.0 mph N/A   Scattered Clouds
2:55 PM 91.4 °F 98.4 °F 71.6 °F 52% 29.90 in 10.0 mi ESE 10.4 mph 18.4 mph N/A   Clear
3:15 PM 91.4 °F 96.8 °F 69.8 °F 49% 29.90 in 10.0 mi SE 10.4 mph 23.0 mph N/A   Partly Cloudy
3:35 PM 91.4 °F 98.4 °F 71.6 °F 52% 29.89 in 9.0 mi ESE 15.0 mph 21.9 mph N/A   Partly Cloudy
3:55 PM 91.4 °F 96.8 °F 69.8 °F 49% 29.89 in 10.0 mi ESE 10.4 mph 23.0 mph N/A   Scattered Clouds
4:15 PM 91.4 °F 98.4 °F 71.6 °F 52% 29.89 in 9.0 mi SE 17.3 mph 20.7 mph N/A   Partly Cloudy
4:35 PM 89.6 °F 94.7 °F 69.8 °F 52% 29.89 in 10.0 mi SE 13.8 mph 20.7 mph N/A   Clear
4:55 PM 89.6 °F 94.7 °F 69.8 °F 52% 29.88 in 9.0 mi East 19.6 mph 23.0 mph N/A   Clear
5:15 PM 89.6 °F 94.7 °F 69.8 °F 52% 29.89 in 9.0 mi ESE 9.2 mph 20.7 mph N/A   Clear
5:35 PM 89.6 °F 92.2 °F 66.2 °F 46% 29.88 in 10.0 mi SE 15.0 mph 21.9 mph N/A   Clear
5:55 PM 89.6 °F 93.4 °F 68.0 °F 49% 29.88 in 9.0 mi East 20.7 mph 24.2 mph N/A   Clear
6:15 PM 87.8 °F 91.4 °F 68.0 °F 52% 29.88 in 10.0 mi ESE 12.7 mph 20.7 mph N/A   Clear
6:35 PM 86.0 °F 91.8 °F 71.6 °F 62% 29.88 in 10.0 mi ESE 17.3 mph 23.0 mph N/A   Clear
6:55 PM 86.0 °F 91.8 °F 71.6 °F 62% 29.88 in 10.0 mi ESE 15.0 mph 19.6 mph N/A   Clear
7:15 PM 84.2 °F 89.6 °F 71.6 °F 66% 29.88 in 10.0 mi East 11.5 mph - N/A   Clear
7:35 PM 84.2 °F 90.9 °F 73.4 °F 70% 29.88 in 9.0 mi East 11.5 mph - N/A   Clear
7:55 PM 82.4 °F 88.2 °F 73.4 °F 74% 29.89 in 10.0 mi ESE 9.2 mph - N/A   Clear
8:15 PM 82.4 °F 88.2 °F 73.4 °F 74% 29.89 in 10.0 mi ESE 11.5 mph - N/A   Clear
8:35 PM 82.4 °F 88.2 °F 73.4 °F 74% 29.90 in 10.0 mi ESE 10.4 mph - N/A   Clear
8:55 PM 82.4 °F 88.2 °F 73.4 °F 74% 29.90 in 10.0 mi ESE 10.4 mph - N/A   Clear
9:15 PM 82.4 °F 88.2 °F 73.4 °F 74% 29.91 in 10.0 mi SE 8.1 mph - N/A   Partly Cloudy
9:35 PM 82.4 °F 88.2 °F 73.4 °F 74% 29.92 in 10.0 mi SE 8.1 mph - N/A   Clear
9:55 PM 82.4 °F 88.2 °F 73.4 °F 74% 29.92 in 10.0 mi ESE 8.1 mph - N/A   Clear
10:15 PM 82.4 °F 88.2 °F 73.4 °F 74% 29.92 in 10.0 mi ESE 8.1 mph - N/A   Clear
10:35 PM 80.6 °F 85.4 °F 73.4 °F 79% 29.92 in 10.0 mi SE 8.1 mph - N/A   Clear
10:55 PM 80.6 °F 85.4 °F 73.4 °F 79% 29.92 in 10.0 mi ESE 8.1 mph - N/A   Clear
11:15 PM 80.6 °F 85.4 °F 73.4 °F 79% 29.92 in 10.0 mi ESE 8.1 mph - N/A   Clear
11:35 PM 80.6 °F 85.4 °F 73.4 °F 79% 29.92 in 10.0 mi ESE 8.1 mph - N/A   Clear
11:55 PM 80.6 °F 85.4 °F 73.4 °F 79% 29.92 in 9.0 mi ESE 9.2 mph - N/A   Clear